Change the Weather History Date:

Friday, April 19, 2013

  Actual Average Record
Temperature  
Mean Temperature 51 °F 65 °F  
Max Temperature 61 °F 77 °F 92 °F (2006)
Min Temperature 40 °F 54 °F 34 °F (1983)
Degree Days  
Heating Degree Days 14 3  
Month to date heating degree days 85 80  
Since 1 July heating degree days 2241 2321  
Cooling Degree Days 0 3  
Month to date cooling degree days 71 45  
Year to date cooling degree days 96 77  
Growing Degree Days 2 (Base 50)    
Moisture  
Dew Point 38 °F    
Average Humidity 70    
Maximum Humidity 100    
Minimum Humidity 39    
Precipitation  
Precipitation 0.00 in 0.19 in 1.61 in (1959)
Month to date precipitation 3.22 3.20  
Year to date precipitation 29.01 18.57  
Sea Level Pressure  
Sea Level Pressure 30.11 in    
Wind  
Wind Speed 8 mph (NW)    
Max Wind Speed 18 mph    
Max Gust Speed 30 mph    
Visibility 10 miles    
Events      
T = Trace of Precipitation, MM = Missing Value Source: NWS Daily Summary

Daily Weather History Graph

Daily Weather History Graph

Search for Another Location

Airport or City:

Trip Planner

Search our weather history database for the weather conditions in past years. The results will help you decide how hot, cold, wet, or windy it might be!

Date:

Astronomy

Apr. 19, 2013 Rise Set
Actual Time 6:29 AM CDT 7:36 PM CDT
Civil Twilight 6:04 AM CDT 8:02 PM CDT
Nautical Twilight 5:34 AM CDT 8:32 PM CDT
Astronomical Twilight 5:03 AM CDT 9:03 PM CDT
Moon 1:42 PM CDT (4/19) 2:24 AM CDT (4/19)
Length of Visible Light 13h 57m
Length of Day
13h 06m
First Quarter, 62% of the Moon is Illuminated
Apr 19
First Quarter
Apr 25
Full
May 2
Last Quarter
May 9
New
May 17
First Quarter

Hourly Weather History & Observations

Time (CDT) Temp. Windchill Dew Point Humidity Pressure Visibility Wind Dir Wind Speed Gust Speed Precip Events Conditions
12:53 AM 50.0 °F - 45.0 °F 83% 29.99 in 10.0 mi NNW 11.5 mph 21.9 mph 0.01 in   Overcast
1:53 AM 48.9 °F - 45.0 °F 86% 30.01 in 10.0 mi NW 10.4 mph 19.6 mph N/A   Overcast
2:35 AM 48.2 °F - 42.8 °F 82% 30.00 in 10.0 mi NW 10.4 mph 20.7 mph N/A   Overcast
2:53 AM 48.9 °F - 41.0 °F 74% 30.02 in 10.0 mi NW 13.8 mph 25.3 mph N/A   Overcast
3:10 AM 48.2 °F - 41.0 °F 76% 29.99 in 10.0 mi NNW 11.5 mph 24.2 mph N/A   Overcast
3:53 AM 48.0 °F - 39.9 °F 74% 30.04 in 10.0 mi NW 10.4 mph 21.9 mph N/A   Overcast
4:11 AM 46.4 °F 40.4 °F 37.4 °F 71% 30.03 in 10.0 mi NW 13.8 mph 19.6 mph N/A   Mostly Cloudy
4:53 AM 45.0 °F 40.6 °F 37.0 °F 74% 30.07 in 10.0 mi NW 8.1 mph - N/A   Clear
5:53 AM 44.1 °F 40.8 °F 39.0 °F 82% 30.09 in 10.0 mi WNW 5.8 mph - N/A   Clear
6:53 AM 45.0 °F 40.1 °F 37.0 °F 74% 30.10 in 10.0 mi NW 9.2 mph 21.9 mph N/A   Partly Cloudy
7:22 AM 46.4 °F 42.4 °F 39.2 °F 76% 30.09 in 10.0 mi WNW 8.1 mph - N/A   Overcast
7:41 AM 46.4 °F 42.9 °F 39.2 °F 76% 30.10 in 10.0 mi NW 6.9 mph 17.3 mph N/A   Scattered Clouds
7:53 AM 46.9 °F - 39.0 °F 74% 30.12 in 10.0 mi NW 10.4 mph 17.3 mph N/A   Scattered Clouds
8:07 AM 46.4 °F 40.7 °F 37.4 °F 71% 30.10 in 10.0 mi WNW 12.7 mph 20.7 mph N/A   Mostly Cloudy
8:14 AM 46.4 °F 41.5 °F 37.4 °F 71% 30.10 in 10.0 mi NW 10.4 mph 20.7 mph N/A   Scattered Clouds
8:53 AM 48.0 °F - 37.0 °F 66% 30.15 in 10.0 mi NW 15.0 mph 24.2 mph N/A   Clear
9:53 AM 48.9 °F - 35.1 °F 59% 30.17 in 10.0 mi NW 13.8 mph 23.0 mph N/A   Partly Cloudy
10:53 AM 52.0 °F - 37.0 °F 57% 30.17 in 10.0 mi NW 12.7 mph 18.4 mph N/A   Mostly Cloudy
11:53 AM 53.1 °F - 36.0 °F 52% 30.19 in 10.0 mi NNW 9.2 mph 17.3 mph N/A   Partly Cloudy
12:53 PM 55.0 °F - 36.0 °F 49% 30.17 in 10.0 mi WNW 8.1 mph - N/A   Clear
1:53 PM 57.0 °F - 36.0 °F 45% 30.16 in 10.0 mi Variable 6.9 mph 19.6 mph N/A   Clear
2:53 PM 55.0 °F - 36.0 °F 49% 30.14 in 10.0 mi NW 11.5 mph 16.1 mph N/A   Partly Cloudy
3:53 PM 59.0 °F - 36.0 °F 42% 30.13 in 10.0 mi NNW 11.5 mph 19.6 mph N/A   Partly Cloudy
4:53 PM 60.1 °F - 36.0 °F 41% 30.13 in 10.0 mi WNW 8.1 mph 17.3 mph N/A   Clear
5:53 PM 59.0 °F - 35.1 °F 41% 30.14 in 10.0 mi NW 8.1 mph 16.1 mph N/A   Clear
6:53 PM 57.0 °F - 35.1 °F 44% 30.14 in 10.0 mi Variable 5.8 mph - N/A   Clear
7:53 PM 52.0 °F - 37.0 °F 57% 30.17 in 10.0 mi NW 4.6 mph - N/A   Clear
8:53 PM 46.0 °F - 37.9 °F 73% 30.19 in 10.0 mi Calm Calm - N/A   Clear
9:53 PM 43.0 °F - 39.0 °F 86% 30.21 in 10.0 mi Calm Calm - N/A   Clear
10:53 PM 43.0 °F - 42.1 °F 97% 30.22 in 10.0 mi Calm Calm - N/A   Clear
11:53 PM 42.1 °F - 39.9 °F 92% 30.23 in 10.0 mi Calm Calm - N/A   Clear